Location: Esp�s Alto
(42.4476°N, 0.5876°E)
Time: 11:07:41
(UTC+00:00)

COSMOS 2428 - Pass Details

Date: 22 October 2019
Orbit: 844 x 857 km, 70.9° (Epoch: 14 November)

Event Time Altitude Azimuth Distance (km) Brightness Sun altitude
Exits shadow 04:41:34 15° 321° (NW) 2,130 4.4 -18.5°
Drops below altitude 10° 04:44:17 10° 350° (N) 2,474 5.0 -18.0°
Sets 04:47:54 0° 13° (NNE) 3,415 6.0 -17.4°
